| time (UTC) | temp F | wind direction | speed MPH | gust MPH | rain 1hr in | rain 24hr in | rain mn in | humidity % | barometer mb |
| 20260504130347 | 54 | 250 | 1.0 | 6.0 | 0.00 | 0.00 | 0.00 | 58 | 1013.4 |
| 20260504130106 | 53 | 192 | 1.0 | 6.0 | 0.00 | 0.00 | 0.00 | 57 | 1013.6 |
| 20260504120114 | 50 | 201 | 2.0 | 6.0 | 0.00 | 0.00 | 0.00 | 59 | 1013.9 |
| 20260504110342 | 48 | 185 | 2.0 | 4.0 | 0.00 | 0.00 | 0.00 | 60 | 1013.7 |
| 20260504110120 | 47 | 215 | 1.0 | 4.0 | 0.00 | 0.00 | 0.00 | 60 | 1013.9 |
| 20260504100351 | 46 | 172 | 1.0 | 5.0 | 0.00 | 0.00 | 0.00 | 62 | 1013.5 |
| 20260504100107 | 45 | 200 | 0.0 | 4.0 | 0.00 | 0.00 | 0.00 | 62 | 1013.7 |
| 20260504090106 | 46 | 191 | 0.0 | 4.0 | 0.00 | 0.00 | 0.00 | 59 | 1013.9 |
| 20260504081840 | 48 | 208 | 1.0 | 4.0 | 0.00 | 0.00 | 0.00 | 57 | 1013.7 |
| 20260504081608 | 48 | 243 | 0.0 | 4.0 | 0.00 | 0.00 | 0.00 | 57 | 1014.0 |
| 20260504081347 | 48 | 197 | 1.0 | 4.0 | 0.00 | 0.00 | 0.00 | 57 | 1013.8 |
| 20260504080850 | 48 | 203 | 327.0 | 327.0 | 0.00 | 0.00 | 0.00 | 57 | 1013.6 |
| 20260504080402 | 48 | 256 | 1.0 | 5.0 | 0.00 | 0.00 | 0.00 | 57 | 1013.7 |
| 20260504080122 | 48 | 251 | 0.0 | 5.0 | 0.00 | 0.00 | 0.00 | 57 | 1013.9 |
| 20260504070353 | 48 | 241 | 1.0 | 6.0 | 0.00 | 0.00 | 0.00 | 56 | 1013.6 |
| 20260504070112 | 48 | 238 | 0.0 | 6.0 | 0.00 | 0.00 | 0.00 | 56 | 1013.7 |
| 20260504060127 | 48 | 246 | 1.0 | 4.0 | 0.00 | 0.00 | 0.00 | 55 | 1013.9 |
| 20260504050416 | 50 | 253 | 2.0 | 5.0 | 0.00 | 0.00 | 0.00 | 53 | 1013.6 |
| 20260504050117 | 49 | 189 | 1.0 | 5.0 | 0.00 | 0.00 | 0.00 | 52 | 1013.8 |
| 20260504045852 | 50 | 191 | 1.0 | 4.0 | 0.00 | 0.00 | 0.00 | 53 | 1013.6 |
| 20260504045341 | 50 | 233 | 1.0 | 5.0 | 0.00 | 0.00 | 0.00 | 52 | 1013.5 |
| 20260504044848 | 50 | 260 | 2.0 | 6.0 | 0.00 | 0.00 | 0.00 | 52 | 1013.6 |
| 20260504044609 | 50 | 214 | 1.0 | 6.0 | 0.00 | 0.00 | 0.00 | 52 | 1013.8 |
| 20260504044355 | 50 | 208 | 2.0 | 6.0 | 0.00 | 0.00 | 0.00 | 52 | 1013.6 |
| 20260504043918 | 50 | 250 | 1.0 | 8.0 | 0.00 | 0.00 | 0.00 | 51 | 1013.6 |
| 20260504043405 | 50 | 204 | 3.0 | 8.0 | 0.00 | 0.00 | 0.00 | 51 | 1013.5 |
| 20260504043009 | 50 | 236 | 1.0 | 6.0 | 0.00 | 0.00 | 0.00 | 51 | 1013.7 |
| 20260504042907 | 50 | 199 | 2.0 | 6.0 | 0.00 | 0.00 | 0.00 | 51 | 1013.5 |
| 20260504042356 | 50 | 242 | 1.0 | 5.0 | 0.00 | 0.00 | 0.00 | 51 | 1013.5 |
| 20260504041901 | 51 | 240 | 2.0 | 5.0 | 0.00 | 0.00 | 0.00 | 50 | 1013.5 |
| 20260504041549 | 50 | 216 | 0.0 | 5.0 | 0.00 | 0.00 | 0.00 | 51 | 1013.7 |
| 20260504041347 | 51 | 238 | 1.0 | 6.0 | 0.00 | 0.00 | 0.00 | 50 | 1013.5 |
| 20260504040850 | 51 | 187 | 3.0 | 6.0 | 0.00 | 0.00 | 0.00 | 50 | 1013.4 |
| 20260504040343 | 50 | 233 | 1.0 | 5.0 | 0.00 | 0.00 | 0.00 | 51 | 1013.3 |
| 20260504040121 | 50 | 220 | 0.0 | 5.0 | 0.00 | 0.00 | 0.00 | 51 | 1013.5 |
| 20260504035847 | 51 | 202 | 2.0 | 5.0 | 0.00 | 0.00 | 0.00 | 51 | 1013.2 |
| 20260504035356 | 51 | 236 | 1.0 | 3.0 | 0.00 | 0.00 | 0.00 | 52 | 1013.2 |
| 20260504034914 | 50 | 192 | 1.0 | 4.0 | 0.00 | 0.00 | 0.00 | 51 | 1013.1 |
| 20260504034617 | 50 | 192 | 0.0 | 4.0 | 0.00 | 0.00 | 0.00 | 51 | 1013.3 |
| 20260504034358 | 51 | 254 | 1.0 | 4.0 | 0.00 | 0.00 | 0.00 | 51 | 1013.0 |
| 20260504033845 | 51 | 216 | 1.0 | 4.0 | 0.00 | 0.00 | 0.00 | 50 | 1012.9 |
| 20260504033354 | 51 | 247 | 1.0 | 4.0 | 0.00 | 0.00 | 0.00 | 50 | 1012.9 |
| 20260504033117 | 50 | 217 | 0.0 | 3.0 | 0.00 | 0.00 | 0.00 | 51 | 1013.2 |
| 20260504032844 | 51 | 220 | 1.0 | 3.0 | 0.00 | 0.00 | 0.00 | 51 | 1013.0 |
| 20260504032349 | 51 | 208 | 1.0 | 3.0 | 0.00 | 0.00 | 0.00 | 50 | 1013.0 |
| 20260504031840 | 51 | 219 | 0.0 | 3.0 | 0.00 | 0.00 | 0.00 | 51 | 1013.0 |
| 20260504031609 | 50 | 201 | 0.0 | 3.0 | 0.00 | 0.00 | 0.00 | 50 | 1013.2 |
| 20260504031350 | 51 | 191 | 0.0 | 3.0 | 0.00 | 0.00 | 0.00 | 51 | 1012.9 |
| 20260504030853 | 51 | 197 | 0.0 | 4.0 | 0.00 | 0.00 | 0.00 | 50 | 1012.9 |
| 20260504030342 | 51 | 247 | 1.0 | 5.0 | 0.00 | 0.00 | 0.00 | 50 | 1012.9 |
| 20260504030121 | 51 | 185 | 1.0 | 5.0 | 0.00 | 0.00 | 0.00 | 50 | 1013.1 |
| 20260504025844 | 51 | 203 | 1.0 | 5.0 | 0.00 | 0.00 | 0.00 | 50 | 1012.9 |
| 20260504025414 | 51 | 205 | 1.0 | 6.0 | 0.00 | 0.00 | 0.00 | 50 | 1012.9 |
| 20260504024854 | 51 | 200 | 1.0 | 6.0 | 0.00 | 0.00 | 0.00 | 50 | 1012.9 |
| 20260504024619 | 51 | 235 | 0.0 | 3.0 | 0.00 | 0.00 | 0.00 | 51 | 1013.1 |
| 20260504024340 | 51 | 204 | 1.0 | 3.0 | 0.00 | 0.00 | 0.00 | 50 | 1012.9 |
| 20260504023843 | 51 | 235 | 0.0 | 5.0 | 0.00 | 0.00 | 0.00 | 51 | 1012.9 |
| 20260504023350 | 51 | 226 | 1.0 | 5.0 | 0.00 | 0.00 | 0.00 | 51 | 1012.9 |
| 20260504023103 | 50 | 249 | 0.0 | 5.0 | 0.00 | 0.00 | 0.00 | 51 | 1013.2 |
| 20260504022849 | 50 | 217 | 0.0 | 4.0 | 0.00 | 0.00 | 0.00 | 52 | 1012.9 |
| 20260504022337 | 50 | 204 | 1.0 | 4.0 | 0.00 | 0.00 | 0.00 | 52 | 1013.0 |
| 20260504021845 | 50 | 214 | 0.0 | 2.0 | 0.00 | 0.00 | 0.00 | 52 | 1012.9 |
| 20260504021608 | 50 | 201 | 0.0 | 2.0 | 0.00 | 0.00 | 0.00 | 52 | 1013.1 |
| 20260504021353 | 50 | 201 | 0.0 | 2.0 | 0.00 | 0.00 | 0.00 | 52 | 1012.9 |
| 20260504020904 | 51 | 199 | 1.0 | 2.0 | 0.00 | 0.00 | 0.00 | 51 | 1012.9 |
| 20260504020353 | 51 | 191 | 0.0 | 2.0 | 0.00 | 0.00 | 0.00 | 51 | 1012.9 |
| 20260504020116 | 51 | 197 | 0.0 | 2.0 | 0.00 | 0.00 | 0.00 | 51 | 1013.1 |
| 20260504015841 | 51 | 202 | 1.0 | 2.0 | 0.00 | 0.00 | 0.00 | 50 | 1012.8 |
| 20260504015348 | 51 | 194 | 0.0 | 3.0 | 0.00 | 0.00 | 0.00 | 50 | 1012.9 |
| 20260504014854 | 52 | 189 | 0.0 | 3.0 | 0.00 | 0.00 | 0.00 | 50 | 1012.9 |
| 20260504014507 | 51 | 204 | 0.0 | 3.0 | 0.00 | 0.00 | 0.00 | 49 | 1013.1 |
| 20260504014343 | 52 | 208 | 1.0 | 3.0 | 0.00 | 0.00 | 0.00 | 49 | 1012.9 |
| 20260504013847 | 52 | 216 | 327.0 | 327.0 | 0.00 | 0.00 | 0.00 | 49 | 1012.8 |
| 20260504013357 | 52 | 198 | 0.0 | 2.0 | 0.00 | 0.00 | 0.00 | 49 | 1012.8 |
| 20260504013114 | 52 | 212 | 0.0 | 2.0 | 0.00 | 0.00 | 0.00 | 48 | 1013.1 |
| 20260504012837 | 52 | 202 | 1.0 | 2.0 | 0.00 | 0.00 | 0.00 | 48 | 1012.8 |
| 20260504012347 | 53 | 193 | 0.0 | 3.0 | 0.00 | 0.00 | 0.00 | 47 | 1012.7 |
| 20260504011849 | 53 | 204 | 1.0 | 3.0 | 0.00 | 0.00 | 0.00 | 47 | 1012.8 |
| 20260504011614 | 52 | 196 | 0.0 | 3.0 | 0.00 | 0.00 | 0.00 | 46 | 1013.0 |
| 20260504011338 | 53 | 198 | 1.0 | 4.0 | 0.00 | 0.00 | 0.00 | 46 | 1012.7 |
| 20260504010846 | 53 | 218 | 1.0 | 4.0 | 0.00 | 0.00 | 0.00 | 46 | 1012.7 |
| 20260504010356 | 53 | 191 | 0.0 | 2.0 | 0.00 | 0.00 | 0.00 | 45 | 1012.6 |
| 20260504010116 | 53 | 202 | 0.0 | 3.0 | 0.00 | 0.00 | 0.00 | 45 | 1012.9 |
| 20260504005855 | 54 | 225 | 0.0 | 3.0 | 0.00 | 0.00 | 0.00 | 45 | 1012.6 |
| 20260504005344 | 54 | 222 | 0.0 | 3.0 | 0.00 | 0.00 | 0.00 | 44 | 1012.6 |
| 20260504004909 | 54 | 188 | 1.0 | 2.0 | 0.00 | 0.00 | 0.00 | 44 | 1012.5 |
| 20260504004611 | 53 | 216 | 0.0 | 2.0 | 0.00 | 0.00 | 0.00 | 45 | 1012.8 |
| 20260504004356 | 54 | 237 | 1.0 | 2.0 | 0.00 | 0.00 | 0.00 | 44 | 1012.4 |
| 20260504003840 | 54 | 234 | 0.0 | 3.0 | 0.00 | 0.00 | 0.00 | 44 | 1012.3 |
| 20260504003350 | 54 | 225 | 0.0 | 3.0 | 0.00 | 0.00 | 0.00 | 43 | 1012.3 |
| 20260504003105 | 54 | 208 | 0.0 | 3.0 | 0.00 | 0.00 | 0.00 | 43 | 1012.5 |
| 20260504002851 | 55 | 235 | 0.0 | 2.0 | 0.00 | 0.00 | 0.00 | 43 | 1012.2 |
| 20260504002340 | 55 | 177 | 1.0 | 3.0 | 0.00 | 0.00 | 0.00 | 45 | 1012.1 |
| 20260504001845 | 55 | 234 | 0.0 | 4.0 | 0.00 | 0.00 | 0.00 | 44 | 1012.0 |
| 20260504001612 | 55 | 235 | 0.0 | 4.0 | 0.00 | 0.00 | 0.00 | 43 | 1012.3 |
| 20260504001355 | 55 | 244 | 1.0 | 5.0 | 0.00 | 0.00 | 0.00 | 43 | 1012.0 |
| 20260504000902 | 55 | 284 | 2.0 | 5.0 | 0.00 | 0.00 | 0.00 | 43 | 1012.0 |
| 20260504000353 | 55 | 207 | 1.0 | 4.0 | 0.00 | 0.00 | 0.00 | 42 | 1011.9 |
| 20260504000111 | 55 | 249 | 0.0 | 3.0 | 0.00 | 0.00 | 0.00 | 42 | 1012.1 |
| 20260503235914 | 55 | 258 | 1.0 | 4.0 | 0.00 | 0.00 | 0.00 | 42 | 1011.8 |
| 20260503235402 | 55 | 289 | 1.0 | 5.0 | 0.00 | 0.00 | 0.00 | 42 | 1011.9 |
| 20260503234847 | 56 | 235 | 0.0 | 5.0 | 0.00 | 0.00 | 0.00 | 41 | 1011.8 |
| 20260503234607 | 55 | 244 | 0.0 | 5.0 | 0.00 | 0.00 | 0.00 | 42 | 1012.1 |
| 20260503234413 | 56 | 264 | 2.0 | 5.0 | 0.00 | 0.00 | 0.00 | 41 | 1011.8 |
| 20260503233837 | 57 | 254 | 327.0 | 327.0 | 0.00 | 0.00 | 0.00 | 41 | 1011.6 |
| 20260503233406 | 57 | 203 | 1.0 | 9.0 | 0.00 | 0.00 | 0.00 | 40 | 1011.7 |
| 20260503233009 | 56 | 263 | 1.0 | 9.0 | 0.00 | 0.00 | 0.00 | 39 | 1011.9 |
| 20260503232907 | 57 | 264 | 1.0 | 9.0 | 0.00 | 0.00 | 0.00 | 40 | 1011.6 |
| 20260503232355 | 57 | 314 | 1.0 | 5.0 | 0.00 | 0.00 | 0.00 | 40 | 1011.6 |
| 20260503231838 | 57 | 260 | 1.0 | 5.0 | 0.00 | 0.00 | 0.00 | 40 | 1011.6 |
| 20260503231622 | 57 | 274 | 1.0 | 8.0 | 0.00 | 0.00 | 0.00 | 40 | 1011.8 |
| 20260503231346 | 57 | 282 | 1.0 | 8.0 | 0.00 | 0.00 | 0.00 | 40 | 1011.6 |
| 20260503230851 | 58 | 211 | 3.0 | 10.0 | 0.00 | 0.00 | 0.00 | 38 | 1011.6 |
| 20260503230340 | 58 | 282 | 5.0 | 14.0 | 0.00 | 0.00 | 0.00 | 37 | 1011.6 |
| 20260503230120 | 58 | 299 | 4.0 | 14.0 | 0.00 | 0.00 | 0.00 | 37 | 1011.8 |
| 20260503225844 | 58 | 276 | 8.0 | 14.0 | 0.00 | 0.00 | 0.00 | 36 | 1011.6 |
| 20260503225416 | 59 | 308 | 5.0 | 14.0 | 0.00 | 0.00 | 0.00 | 36 | 1011.4 |
| 20260503224841 | 59 | 275 | 2.0 | 10.0 | 0.00 | 0.00 | 0.00 | 37 | 1011.4 |
| 20260503224603 | 58 | 257 | 2.0 | 10.0 | 0.00 | 0.00 | 0.00 | 38 | 1011.7 |
| 20260503224350 | 59 | 175 | 3.0 | 8.0 | 0.00 | 0.00 | 0.00 | 37 | 1011.4 |
| 20260503223852 | 59 | 278 | 3.0 | 8.0 | 0.00 | 0.00 | 0.00 | 39 | 1011.4 |
| 20260503223342 | 58 | 291 | 3.0 | 11.0 | 0.00 | 0.00 | 0.00 | 38 | 1011.4 |
| 20260503223102 | 58 | 262 | 2.0 | 11.0 | 0.00 | 0.00 | 0.00 | 38 | 1011.6 |
| 20260503222846 | 58 | 247 | 2.0 | 11.0 | 0.00 | 0.00 | 0.00 | 40 | 1011.3 |
| 20260503222350 | 59 | 288 | 4.0 | 10.0 | 0.00 | 0.00 | 0.00 | 39 | 1011.4 |
| 20260503221854 | 59 | 218 | 4.0 | 12.0 | 0.00 | 0.00 | 0.00 | 37 | 1011.4 |
| 20260503221622 | 59 | 183 | 3.0 | 12.0 | 0.00 | 0.00 | 0.00 | 38 | 1011.7 |
| 20260503221343 | 59 | 266 | 4.0 | 12.0 | 0.00 | 0.00 | 0.00 | 37 | 1011.4 |
| 20260503220849 | 59 | 244 | 3.0 | 11.0 | 0.00 | 0.00 | 0.00 | 37 | 1011.3 |
| 20260503220419 | 59 | 248 | 5.0 | 11.0 | 0.00 | 0.00 | 0.00 | 37 | 1011.4 |
| 20260503220116 | 58 | 269 | 4.0 | 11.0 | 0.00 | 0.00 | 0.00 | 38 | 1011.6 |
| 20260503215859 | 59 | 328 | 3.0 | 9.0 | 0.00 | 0.00 | 0.00 | 38 | 1011.3 |
| 20260503215401 | 58 | 235 | 2.0 | 7.0 | 0.00 | 0.00 | 0.00 | 38 | 1011.3 |
| 20260503214845 | 58 | 319 | 2.0 | 9.0 | 0.00 | 0.00 | 0.00 | 37 | 1011.4 |
| 20260503214611 | 58 | 218 | 1.0 | 9.0 | 0.00 | 0.00 | 0.00 | 38 | 1011.7 |
| 20260503214353 | 58 | 293 | 3.0 | 9.0 | 0.00 | 0.00 | 0.00 | 37 | 1011.4 |
| 20260503213840 | 59 | 264 | 4.0 | 15.0 | 0.00 | 0.00 | 0.00 | 37 | 1011.4 |
| 20260503213349 | 59 | 252 | 8.0 | 15.0 | 0.00 | 0.00 | 0.00 | 36 | 1011.2 |
| 20260503213113 | 58 | 247 | 2.0 | 8.0 | 0.00 | 0.00 | 0.00 | 36 | 1011.4 |
| 20260503212851 | 58 | 264 | 3.0 | 11.0 | 0.00 | 0.00 | 0.00 | 36 | 1011.1 |
| 20260503212358 | 57 | 330 | 5.0 | 11.0 | 0.00 | 0.00 | 0.00 | 37 | 1011.2 |
| 20260503211847 | 57 | 303 | 5.0 | 12.0 | 0.00 | 0.00 | 0.00 | 36 | 1011.2 |
| 20260503211614 | 57 | 262 | 6.0 | 13.0 | 0.00 | 0.00 | 0.00 | 36 | 1011.5 |
| 20260503211356 | 58 | 283 | 7.0 | 13.0 | 0.00 | 0.00 | 0.00 | 36 | 1011.3 |
| 20260503210837 | 58 | 264 | 7.0 | 13.0 | 0.00 | 0.00 | 0.00 | 37 | 1011.1 |
| 20260503210349 | 57 | 300 | 6.0 | 12.0 | 0.00 | 0.00 | 0.00 | 36 | 1011.2 |
| 20260503210106 | 57 | 275 | 5.0 | 12.0 | 0.00 | 0.00 | 0.00 | 38 | 1011.4 |
| 20260503205848 | 57 | 268 | 5.0 | 12.0 | 0.00 | 0.00 | 0.00 | 36 | 1011.2 |
| 20260503205354 | 58 | 306 | 3.0 | 9.0 | 0.00 | 0.00 | 0.00 | 36 | 1011.2 |
| 20260503204840 | 59 | 223 | 4.0 | 10.0 | 0.00 | 0.00 | 0.00 | 37 | 1011.3 |
| 20260503204610 | 58 | 261 | 4.0 | 10.0 | 0.00 | 0.00 | 0.00 | 36 | 1011.5 |
| 20260503204349 | 59 | 281 | 4.0 | 14.0 | 0.00 | 0.00 | 0.00 | 36 | 1011.2 |
| 20260503203852 | 58 | 290 | 2.0 | 14.0 | 0.00 | 0.00 | 0.00 | 36 | 1011.3 |
| 20260503203402 | 58 | 264 | 5.0 | 16.0 | 0.00 | 0.00 | 0.00 | 36 | 1011.3 |
| 20260503203121 | 58 | 291 | 4.0 | 16.0 | 0.00 | 0.00 | 0.00 | 38 | 1011.6 |
| 20260503202351 | 58 | 321 | 4.0 | 13.0 | 0.00 | 0.00 | 0.00 | 35 | 1011.3 |
| 20260503201916 | 58 | 305 | 8.0 | 13.0 | 0.00 | 0.00 | 0.00 | 36 | 1011.3 |
| 20260503201623 | 58 | 258 | 4.0 | 10.0 | 0.00 | 0.00 | 0.00 | 35 | 1011.6 |
| 20260503200840 | 58 | 270 | 3.0 | 14.0 | 0.00 | 0.00 | 0.00 | 37 | 1011.5 |
| 20260503200351 | 57 | 289 | 9.0 | 14.0 | 0.00 | 0.00 | 0.00 | 39 | 1011.6 |
| 20260503200112 | 57 | 300 | 5.0 | 19.0 | 0.00 | 0.00 | 0.00 | 39 | 1011.7 |
| 20260503195352 | 58 | 212 | 9.0 | 19.0 | 0.00 | 0.00 | 0.00 | 38 | 1011.8 |
| 20260503194858 | 57 | 255 | 3.0 | 13.0 | 0.00 | 0.00 | 0.00 | 38 | 1011.7 |
| 20260503194628 | 56 | 165 | 2.0 | 13.0 | 0.00 | 0.00 | 0.00 | 37 | 1012.0 |
| 20260503194345 | 57 | 181 | 3.0 | 15.0 | 0.00 | 0.00 | 0.00 | 36 | 1012.0 |
| 20260503193851 | 57 | 283 | 7.0 | 15.0 | 0.00 | 0.00 | 0.00 | 36 | 1012.0 |
| 20260503193341 | 57 | 293 | 8.0 | 14.0 | 0.00 | 0.00 | 0.00 | 41 | 1012.1 |
| 20260503193104 | 56 | 324 | 4.0 | 18.0 | 0.00 | 0.00 | 0.00 | 39 | 1012.3 |
| 20260503192846 | 56 | 281 | 4.0 | 18.0 | 0.00 | 0.00 | 0.00 | 39 | 1012.0 |
| 20260503192353 | 56 | 285 | 8.0 | 18.0 | 0.00 | 0.00 | 0.00 | 40 | 1012.2 |
| 20260503191839 | 56 | 275 | 7.0 | 18.0 | 0.00 | 0.00 | 0.00 | 39 | 1012.1 |
| 20260503191608 | 56 | 284 | 8.0 | 18.0 | 0.00 | 0.00 | 0.00 | 39 | 1012.5 |
| 20260503191346 | 57 | 275 | 9.0 | 15.0 | 0.00 | 0.00 | 0.00 | 41 | 1012.1 |
| 20260503190852 | 57 | 296 | 6.0 | 0.0 | 0.00 | 0.00 | 0.00 | 42 | 1011.9 |
| 20260503190358 | 56 | 298 | 7.0 | 17.0 | 0.00 | 0.00 | 0.00 | 39 | 1012.3 |
| 20260503190124 | 56 | 289 | 7.0 | 17.0 | 0.00 | 0.00 | 0.00 | 40 | 1012.5 |
| 20260503185842 | 56 | 330 | 6.0 | 16.0 | 0.00 | 0.00 | 0.00 | 42 | 1012.3 |
| 20260503185348 | 56 | 293 | 5.0 | 9.0 | 0.00 | 0.00 | 0.00 | 40 | 1012.3 |
| 20260503184854 | 55 | 279 | 3.0 | 9.0 | 0.00 | 0.00 | 0.00 | 45 | 1012.5 |
| 20260503184619 | 54 | 274 | 3.0 | 17.0 | 0.00 | 0.00 | 0.00 | 46 | 1012.8 |
| 20260503184343 | 54 | 232 | 3.0 | 17.0 | 0.00 | 0.00 | 0.00 | 46 | 1012.5 |
| 20260503183848 | 54 | 213 | 8.0 | 19.0 | 0.00 | 0.00 | 0.00 | 40 | 1012.7 |
| 20260503183356 | 54 | 278 | 7.0 | 19.0 | 0.00 | 0.00 | 0.00 | 41 | 1012.5 |
| 20260503183113 | 54 | 245 | 9.0 | 19.0 | 0.00 | 0.00 | 0.00 | 40 | 1013.0 |
| 20260503182839 | 54 | 301 | 8.0 | 14.0 | 0.00 | 0.00 | 0.00 | 42 | 1012.7 |
| 20260503182347 | 55 | 279 | 4.0 | 13.0 | 0.00 | 0.00 | 0.00 | 41 | 1012.6 |
| 20260503181849 | 54 | 281 | 8.0 | 13.0 | 0.00 | 0.00 | 0.00 | 43 | 1012.7 |
| 20260503181615 | 53 | 298 | 5.0 | 13.0 | 0.00 | 0.00 | 0.00 | 41 | 1013.0 |
| 20260503181359 | 54 | 263 | 3.0 | 16.0 | 0.00 | 0.00 | 0.00 | 41 | 1012.6 |
| 20260503180343 | 55 | 290 | 7.0 | 16.0 | 0.00 | 0.00 | 0.00 | 45 | 1012.7 |
| 20260503180120 | 54 | 235 | 4.0 | 20.0 | 0.00 | 0.00 | 0.00 | 48 | 1012.9 |
| 20260503175846 | 54 | 289 | 4.0 | 20.0 | 0.00 | 0.00 | 0.00 | 44 | 1012.7 |
| 20260503175353 | 53 | 295 | 8.0 | 20.0 | 0.00 | 0.00 | 0.00 | 45 | 1012.9 |
| 20260503174916 | 53 | 277 | 6.0 | 16.0 | 0.00 | 0.00 | 0.00 | 41 | 1012.8 |
| 20260503174615 | 53 | 319 | 6.0 | 16.0 | 0.00 | 0.00 | 0.00 | 40 | 1013.1 |
| 20260503174339 | 54 | 274 | 4.0 | 16.0 | 0.00 | 0.00 | 0.00 | 44 | 1012.7 |
| 20260503173847 | 54 | 299 | 8.0 | 16.0 | 0.00 | 0.00 | 0.00 | 45 | 1012.7 |
| 20260503173356 | 53 | 185 | 5.0 | 14.0 | 0.00 | 0.00 | 0.00 | 44 | 1012.9 |
| 20260503173212 | 53 | 256 | 4.0 | 14.0 | 0.00 | 0.00 | 0.00 | 46 | 1013.2 |
| 20260503172857 | 53 | 286 | 6.0 | 19.0 | 0.00 | 0.00 | 0.00 | 44 | 1013.0 |
| 20260503172346 | 53 | 235 | 7.0 | 19.0 | 0.00 | 0.00 | 0.00 | 47 | 1013.2 |
| 20260503171847 | 53 | 306 | 8.0 | 18.0 | 0.00 | 0.00 | 0.00 | 42 | 1013.2 |
| 20260503171611 | 52 | 274 | 10.0 | 18.0 | 0.00 | 0.00 | 0.00 | 41 | 1013.4 |
| 20260503171354 | 53 | 260 | 2.0 | 13.0 | 0.00 | 0.00 | 0.00 | 44 | 1013.1 |
| 20260503170859 | 53 | 272 | 7.0 | 13.0 | 0.00 | 0.00 | 0.00 | 43 | 1013.1 |
| 20260503170346 | 52 | 305 | 4.0 | 13.0 | 0.00 | 0.00 | 0.00 | 44 | 1013.2 |
| 20260503170106 | 51 | 313 | 4.0 | 13.0 | 0.00 | 0.00 | 0.00 | 45 | 1013.5 |
| 20260503160112 | 51 | 352 | 4.0 | 11.0 | 0.00 | 0.00 | 0.00 | 45 | 1013.7 |
| 20260503150836 | 47 | 271 | 5.0 | 13.0 | 0.00 | 0.00 | 0.00 | 55 | 1013.9 |
| 20260503150348 | 47 | 308 | 3.0 | 13.0 | 0.00 | 0.00 | 0.00 | 55 | 1013.9 |
| 20260503150105 | 47 | 247 | 3.0 | 13.0 | 0.00 | 0.00 | 0.00 | 55 | 1014.2 |
| 20260503140116 | 46 | 301 | 3.0 | 9.0 | 0.00 | 0.00 | 0.00 | 61 | 1014.4 |